Theta_e
302 302 302 302 302 302 302 302 302 303 303 303 303 302 302 303 303 306 312 314 316 313 313 317 321 321 320 319 318 318 322 325 327 328 330 331 327 325 325 327 330 329 332 349 358
303 302 302 302 302 302 302 303 303 303 303 303 303 303 303 303 303 311 313 312 311 311 310 316 321 321 320 318 318 320 322 324 327 329 330 330 327 326 324 324 327 327 339 350 350
302 302 302 301 301 301 301 301 301 302 302 303 303 303 303 303 311 317 314 312 313 314 310 315 319 321 320 319 319 319 320 323 323 323 326 327 327 325 325 325 325 326 332 346 349
301 301 301 301 301 301 301 301 301 301 301 301 301 301 303 306 318 320 313 316 317 318 322 314 318 321 324 323 320 320 320 320 321 322 322 323 323 324 323 324 324 324 325 325 346
301 301 301 301 301 301 301 301 301 301 301 301 301 302 308 313 314 315 313 310 318 321 321 317 319 320 324 325 325 323 322 320 320 320 321 320 321 322 323 322 322 321 322 322 324
301 301 301 301 301 301 301 301 301 301 301 301 301 303 310 314 313 312 311 312 317 320 320 321 320 320 321 324 326 326 324 322 320 320 319 320 320 320 320 320 320 320 321 321 322
300 300 300 300 300 300 301 301 302 302 302 302 303 305 311 312 312 311 311 312 314 318 320 320 320 320 320 323 323 324 326 325 323 322 321 319 320 320 319 319 319 320 320 320 320
300 300 300 300 300 301 302 302 303 303 302 302 304 311 312 311 311 311 311 311 312 317 318 318 319 320 321 321 322 323 325 326 325 324 322 320 320 321 319 319 319 319 320 319 320
299 299 300 300 301 302 304 304 303 303 303 303 311 313 316 314 311 311 315 315 312 312 315 316 318 320 321 323 324 325 326 325 325 325 324 322 322 321 320 321 320 319 320 320 320
299 299 300 300 301 305 305 304 308 308 312 312 313 314 315 314 315 317 319 319 319 314 313 315 315 320 321 324 324 324 326 325 325 326 325 325 323 322 321 322 321 320 320 320 320
299 299 300 300 302 307 307 312 312 316 314 314 315 315 314 313 313 315 318 319 319 318 317 317 318 318 320 321 322 323 324 325 326 326 326 326 326 325 323 321 321 320 320 320 320
300 300 300 300 304 308 310 311 309 307 310 310 310 311 311 310 312 314 312 317 317 320 319 320 319 319 318 319 321 321 323 325 326 327 326 325 325 325 325 324 322 321 320 320 321
300 300 301 300 309 312 311 309 308 309 312 312 314 312 314 314 315 318 314 316 320 319 321 321 321 320 319 319 319 320 322 324 325 325 325 324 324 324 325 324 323 323 322 321 321
300 299 299 301 311 311 312 309 308 311 315 316 314 316 317 317 319 318 317 318 322 322 321 322 321 321 320 320 318 320 320 322 324 325 324 324 325 324 324 324 324 323 322 322 322
299 299 299 305 307 312 311 311 310 311 318 315 319 318 318 318 318 317 317 318 320 320 320 321 321 321 321 321 320 319 319 321 322 323 324 323 325 325 324 324 325 325 323 323 322
299 299 299 310 312 312 311 311 313 320 319 315 316 318 318 317 316 315 314 317 317 318 318 319 317 319 320 322 321 320 320 321 321 321 322 322 323 323 323 324 325 325 324 323 323
300 299 301 306 312 311 312 312 317 318 316 315 315 315 315 315 315 314 314 317 317 318 320 319 318 318 319 322 322 321 322 325 323 322 323 322 322 322 323 324 324 325 324 324 323
300 301 307 310 310 310 311 314 317 315 315 314 315 315 314 314 314 315 317 317 316 316 320 321 321 320 319 320 322 322 321 324 325 324 322 321 323 323 323 323 323 324 323 324 324
299 307 308 312 309 308 310 315 315 313 312 312 313 312 313 312 313 314 316 316 315 317 320 325 322 318 318 320 322 321 321 322 322 323 325 322 323 323 324 323 324 323 324 324 325
302 308 309 308 306 307 312 314 311 309 307 307 308 309 309 309 312 314 315 314 315 318 318 318 323 320 320 320 321 322 322 322 323 328 330 325 324 324 324 324 324 324 324 331 334
305 308 310 307 304 310 313 308 307 304 304 305 306 307 306 307 308 309 311 312 315 318 317 315 320 322 321 323 324 321 324 324 324 323 324 323 324 326 325 325 324 324 335 338 335
304 309 307 305 309 308 308 306 305 304 303 305 306 306 309 311 310 312 313 313 313 314 318 316 317 321 319 320 322 322 321 326 329 328 324 327 333 331 330 331 332 338 338 338 340
304 307 307 304 308 307 307 306 304 305 305 306 307 307 307 310 313 313 314 313 311 314 314 313 318 321 325 323 322 325 322 322 325 326 327 327 331 330 329 330 332 335 334 336 337
306 307 306 304 305 306 307 306 305 305 305 305 306 307 307 309 309 311 310 312 311 312 312 313 315 319 321 321 321 324 324 324 324 330 330 328 327 332 332 332 332 330 332 337 337
305 306 304 305 305 306 306 306 306 306 305 305 307 308 307 310 310 309 310 310 311 312 312 312 315 316 317 317 317 320 325 324 326 327 328 326 326 330 331 331 330 330 332 335 335
303 302 301 302 304 306 307 307 306 306 305 306 307 307 306 308 309 311 311 311 311 312 312 312 315 313 315 317 319 320 323 324 325 325 325 326 327 322 325 328 329 329 330 331 330
300 301 301 302 304 305 307 306 305 304 305 305 306 306 307 308 308 308 308 309 311 311 312 312 313 317 319 320 321 325 326 325 325 325 325 326 327 329 329 327 327 328 327 327 326
Wind_Speed
15 15 16 15 15 16 15 15 15 16 19 22 23 24 24 24 26 25 30 23 15 21 19 9 15 17 20 26 26 17 16 22 30 27 22 21 11 17 18 20 12 12 11 9 11
17 18 19 20 21 22 22 21 19 19 19 20 22 25 27 26 30 32 29 28 29 26 17 21 17 19 25 23 29 20 16 30 24 25 27 20 15 16 11 17 14 16 10 6 11
21 21 21 22 23 24 24 25 26 26 24 25 23 23 24 25 27 5 11 8 13 15 23 19 22 21 26 28 30 27 27 22 26 31 31 16 14 17 17 16 21 21 18 12 13
22 23 24 24 24 24 25 26 27 29 31 31 31 32 25 12 7 9 8 4 6 5 16 22 23 29 23 25 28 28 31 28 33 26 20 17 22 20 19 19 17 16 15 9 11
23 24 24 24 25 25 25 26 26 27 28 30 32 30 16 11 22 20 20 16 9 7 15 22 26 28 28 24 30 29 26 31 30 31 27 19 26 27 26 21 17 14 13 15 13
25 25 26 26 26 25 25 25 26 25 29 30 28 23 12 21 9 11 9 10 13 13 16 19 20 25 25 29 28 26 33 30 33 28 31 24 23 26 28 23 24 24 23 20 20
26 27 28 29 30 30 29 28 28 29 22 20 18 15 16 31 11 8 11 9 13 17 19 17 20 17 20 24 28 30 27 24 22 30 27 25 27 32 32 27 29 28 28 27 24
29 30 31 33 32 32 30 28 28 21 24 19 15 8 13 9 10 15 14 16 14 14 18 18 17 24 25 22 24 15 22 25 29 24 27 25 33 26 33 33 35 32 29 29 29
30 32 34 34 34 33 32 26 20 21 19 11 0 10 13 10 10 10 13 14 17 16 14 12 13 20 21 20 20 25 22 28 27 24 23 23 36 18 36 35 39 35 32 29 28
31 34 35 35 35 32 25 21 17 13 9 2 8 8 17 8 6 8 9 12 11 17 16 17 13 15 19 18 22 25 27 26 25 22 27 27 29 21 14 26 19 26 34 36 33
33 34 34 34 33 27 25 17 7 5 13 15 18 20 10 10 11 12 11 10 13 15 18 19 16 23 26 26 27 25 27 27 23 24 22 28 26 22 23 20 20 23 28 29 36
32 33 34 31 29 19 19 11 8 11 19 29 36 38 30 20 17 19 20 13 21 19 20 18 22 24 24 24 26 27 28 29 20 14 21 22 22 23 25 27 29 25 26 28 28
31 32 33 28 20 15 10 7 8 14 11 21 13 12 11 14 17 18 19 22 19 20 21 23 24 21 23 24 26 26 27 26 27 21 17 13 22 24 25 24 30 32 34 31 28
32 33 33 28 10 15 6 11 9 11 7 14 8 9 9 8 11 15 17 20 17 22 21 20 21 24 23 21 23 26 26 25 25 23 18 26 19 23 24 24 24 29 33 35 35
34 33 30 23 15 10 12 11 10 7 8 6 11 5 4 10 14 17 14 18 20 20 17 22 21 24 25 26 23 26 21 21 23 23 22 25 16 19 21 26 28 27 34 34 34
33 34 29 12 12 11 13 13 10 8 12 3 4 4 9 15 15 19 20 24 24 22 24 28 31 25 18 25 24 18 22 21 21 19 20 26 22 21 20 23 21 20 36 34 34
34 32 23 10 11 14 12 12 8 10 11 4 9 13 18 21 25 25 24 22 21 21 21 24 28 30 17 18 24 22 15 11 13 16 19 26 25 21 16 19 21 22 25 27 33
36 25 15 5 10 13 11 12 13 15 19 24 18 21 24 27 26 13 8 16 18 22 19 22 25 20 14 26 19 28 24 12 14 16 19 26 23 25 28 7 7 8 21 27 27
38 17 8 7 11 13 16 10 15 21 21 20 21 24 23 20 9 17 19 20 20 15 7 8 22 16 19 19 31 22 18 28 26 5 9 17 21 19 13 13 16 12 13 10 14
31 18 9 6 16 13 12 14 18 21 27 24 28 25 28 26 19 15 12 13 17 10 4 5 10 12 4 9 29 17 22 20 15 9 12 15 24 16 20 15 13 20 20 9 7
19 14 3 11 16 16 8 15 25 26 26 23 25 29 28 27 26 26 25 18 11 4 4 2 7 9 7 16 22 15 10 13 14 17 12 13 10 8 15 16 20 15 15 12 13
12 7 14 17 16 10 9 17 23 21 22 20 20 16 13 21 21 22 21 16 17 11 9 4 4 5 14 25 20 25 23 23 11 10 15 15 5 13 10 9 13 14 12 12 10
17 20 6 12 7 11 17 18 17 15 15 13 14 17 16 7 6 11 7 2 10 14 3 4 1 5 9 10 8 10 18 22 26 15 17 15 7 4 7 8 4 13 12 12 16
12 6 18 14 12 16 16 16 17 12 14 21 21 13 9 14 14 10 17 7 11 22 9 2 3 9 11 15 9 11 18 23 24 13 14 13 7 15 10 12 9 12 10 18 25
10 7 11 8 14 15 15 15 18 16 20 21 14 15 16 8 20 14 17 15 16 3 4 2 6 14 20 25 21 22 24 24 22 20 16 18 13 11 6 13 13 17 12 23 19
11 17 14 23 16 18 14 12 18 21 21 17 12 23 20 18 16 22 20 16 12 13 2 1 5 14 22 21 19 20 19 24 24 20 19 21 6 6 2 16 17 20 16 25 26
10 10 15 13 13 12 12 19 17 20 13 26 20 21 21 21 23 30 31 30 23 20 17 9 4 3 8 9 10 10 24 26 25 21 25 18 9 19 17 18 18 23 24 27 26
Wind_Direction
359 354 351 348 343 337 336 331 324 319 317 315 314 313 312 309 304 298 274 256 253 247 236 220 235 224 224 230 226 230 250 240 243 248 245 259 191 231 243 246 207 207 249 98 148
360 357 354 348 345 344 340 335 331 327 321 315 313 314 314 319 314 296 283 263 249 245 239 226 227 221 218 227 224 222 232 241 246 253 258 248 191 229 209 226 205 204 199 173 172
360 354 349 344 342 339 335 331 329 327 322 318 312 309 311 319 312 263 285 220 230 238 227 225 230 223 231 225 223 220 239 250 242 255 261 279 244 232 201 224 218 201 196 178 192
354 349 344 339 335 332 327 324 322 320 318 315 314 314 319 314 285 278 294 209 191 237 218 215 225 237 232 233 227 232 240 243 259 258 241 264 260 223 228 244 211 211 176 193 198
350 344 338 334 329 326 322 318 316 311 308 306 308 313 327 264 259 273 275 255 245 202 209 211 220 224 237 239 245 237 248 247 251 252 256 238 247 252 238 237 241 231 198 212 216
348 341 336 333 329 325 321 316 311 305 300 297 297 298 288 267 251 234 267 233 226 222 221 225 227 229 241 236 249 246 238 248 248 244 243 243 241 247 243 243 238 235 225 228 229
345 341 338 335 333 331 328 324 315 311 305 292 289 286 267 252 274 247 259 247 242 229 230 228 234 236 241 253 247 259 259 249 241 244 244 242 248 240 241 234 239 236 234 239 236
347 343 340 339 337 332 329 323 315 310 306 298 290 224 251 262 255 238 244 243 239 229 236 239 242 247 247 255 245 245 255 247 243 231 239 237 251 238 235 237 235 233 232 233 229
347 343 341 341 337 335 332 325 319 311 301 297 23 211 269 261 254 249 226 228 233 232 233 229 238 243 236 239 244 238 242 234 246 237 218 215 245 248 253 239 228 230 233 232 223
347 342 341 341 337 337 339 332 325 314 338 266 254 225 241 257 223 214 221 217 220 217 221 225 230 228 228 229 230 235 234 240 256 233 233 219 234 245 259 244 222 223 227 231 226
346 343 343 342 338 338 340 356 313 239 225 242 265 240 257 265 254 236 222 217 222 216 215 202 219 227 226 221 247 250 267 253 237 229 251 227 238 237 229 228 230 220 228 227 226
346 342 340 342 339 343 1 346 336 309 293 271 261 261 264 259 260 256 226 216 217 227 220 238 229 244 245 240 237 241 254 261 259 257 242 239 245 236 232 218 218 214 219 222 223
345 341 339 343 341 358 331 326 324 324 273 298 238 254 245 210 236 252 205 218 245 227 241 247 246 231 232 251 244 242 242 246 256 248 228 258 257 247 240 241 231 227 222 226 227
344 339 337 341 333 321 313 324 317 321 278 265 185 202 183 218 229 221 208 225 232 244 254 265 261 249 261 238 243 243 239 243 254 248 237 206 248 240 232 233 229 227 228 222 224
345 339 337 338 331 338 311 321 305 300 284 120 125 133 214 246 328 247 209 228 249 269 236 255 253 248 246 238 234 245 243 244 237 252 257 250 252 252 239 226 219 222 221 223 221
343 336 333 337 327 311 316 314 311 245 264 71 22 271 260 264 273 288 256 223 247 267 270 270 269 267 251 280 245 232 238 241 239 230 235 238 241 244 239 228 230 217 215 217 218
342 335 328 346 319 319 318 306 265 246 330 24 327 311 295 293 291 285 276 264 245 239 251 262 257 250 245 230 258 209 211 228 226 222 234 228 228 238 261 226 224 215 210 213 213
342 335 327 320 329 322 318 273 268 280 306 338 342 315 293 287 280 290 266 262 264 275 278 262 261 236 243 250 238 211 210 212 209 220 227 223 227 227 232 207 303 254 210 216 213
342 339 307 281 325 319 291 269 301 328 336 323 304 295 286 299 285 290 283 288 284 317 276 272 254 226 231 230 227 214 206 217 237 263 296 224 208 236 215 209 205 214 216 206 222
343 327 271 303 321 298 264 273 323 340 334 323 304 299 292 287 295 289 275 286 293 288 345 309 287 236 290 303 272 188 231 215 239 222 229 230 202 208 193 195 212 209 214 169 219
340 318 43 325 312 268 282 332 334 325 311 300 301 293 285 287 287 277 279 287 305 306 293 150 263 294 220 195 216 193 198 253 242 245 251 254 221 343 164 195 186 205 135 145 192
323 303 329 336 296 358 326 334 314 322 325 321 313 290 294 300 291 293 274 262 9 341 312 87 275 285 297 288 315 211 222 186 236 224 240 267 14 339 69 110 94 85 106 124 142
315 304 313 327 332 333 328 326 334 332 335 331 315 324 314 280 266 247 247 340 333 285 5 5 281 302 308 225 265 262 232 240 215 229 228 242 172 337 106 108 91 119 121 147 154
308 311 336 312 344 341 332 322 318 343 344 329 310 320 347 316 315 297 299 5 341 290 97 330 257 255 275 294 335 249 232 221 235 218 225 241 189 169 154 136 135 127 152 161 148
321 335 331 301 329 310 302 310 316 337 328 329 309 326 336 306 317 306 330 295 308 93 92 51 261 267 279 282 270 246 255 212 228 222 230 245 296 170 113 140 134 140 155 144 132
327 339 323 301 304 292 299 341 339 326 334 311 325 314 314 303 296 300 308 307 296 288 282 202 274 306 295 283 254 250 253 204 218 227 227 245 206 331 254 135 128 128 134 122 122
324 313 304 289 297 312 334 330 332 332 304 311 311 307 300 304 309 298 289 279 268 274 280 281 279 304 278 216 215 249 234 197 204 208 225 233 132 169 153 139 137 131 128 124 122